Regional Weather Roundup
Issued by NWS

Home | Current Version | Previous Version | Graphics & Text | Print | Product List | Glossary Off
Versions: 1 2 3 4 5 6 7 8 9 10 11 12 13 14 15 16 17 18 19 20 21 22 23 24 25 26 27 28 29 30 31 32 33 34 35 36 37 38 39 40 41 42 43 44 45 46 47 48 49 50

000
ASUS43 KDMX 270901
RWRIA

WEATHER ROUNDUP FOR IOWA
NATIONAL WEATHER SERVICE DES MOINES IA
400 AM CDT THU JUL 27 2017

NOTE: "FAIR" INDICATES FEW OR NO CLOUDS BELOW 12,000 FEET WITH NO
SIGNIFICANT WEATHER AND/OR OBSTRUCTIONS TO VISIBILITY.

* - THESE STATIONS ARE NOT NWS STATIONS...THUS NOT UNDER NWS
QUALITY CONTROL.  THEY ALSO DO NOT REPORT WEATHER SUCH
AS PRECIPITATION OR FOG.

IAZ001>003-012>014-020>022-031>034-043>046-271000-
   NORTHWEST IOWA

CITY           SKY/WX    TMP DP  RH WIND       PRES   REMARKS
CARROLL *      PTCLDY    66  64  94 N10       30.01F
CHEROKEE *     CLEAR     62  62 100 N3        30.06F
DENISON *      PTCLDY    66  64  94 NE6       30.04F
ORANGE CITY *  CLEAR     66  63  88 NE6       30.08F
SHELDON *      CLEAR     57  57 100 CALM      30.07F
SIOUX CITY     CLEAR     65  63  93 N8        30.05F
SPENCER        CLEAR     62  60  93 N7        30.07S
STORM LAKE *   CLEAR     64  61  88 N9        30.06S
$$

IAZ055>058-069>071-079>083-090>094-271000-
   SOUTHWEST IOWA

CITY           SKY/WX    TMP DP  RH WIND       PRES   REMARKS
ATLANTIC *     CLEAR     70  70 100 NE8       30.00F
AUDUBON *      CLEAR     68  64  88 N9        30.02S
CLARINDA *     CLEAR     72  72 100 N6        30.00S
COUNCIL BLFS * CLEAR     70  70 100 N7        30.01S
CRESTON *      PTCLDY    70  70 100 N6        30.01S
HARLAN  *      CLEAR     68  68 100 N6        30.05S
LAMONI         PTCLDY    72  71  97 N8        29.97S
RED OAK *      CLEAR     72  70  94 NE7       30.00R
SHENANDOAH *   CLEAR     72  72 100 N8G14     29.99S
$$

IAZ047>049-059>061-072>074-084-271000-
   CENTRAL IOWA

CITY           SKY/WX    TMP DP  RH WIND       PRES   REMARKS
AMES           CLEAR     71  71 100 N9        29.98S
ANKENY *       CLEAR     70  68  94 CALM      29.98S
BOONE *        CLEAR     70  68  94 N9        29.99S
CHARITON *     CLOUDY    72  70  94 N6        29.96S
DES MOINES     PTCLDY    71  69  93 N5        29.97S
GRINNELL*      CLEAR     68  66  93 NW5       29.98S
KNOXVILLE *    CLOUDY    73  70  88 N7        29.96R
MARSHALLTOWN   CLOUDY    70  69  97 N7        29.97S
NEWTON *       CLEAR     70  68  94 N6        29.97F
PELLA *        MOCLDY    71  70  97 N3        29.98S
PERRY *          N/A     70  69  98 N7        29.99F
$$

IAZ004>006-015-016-023>025-035-036-271000-
   NORTH CENTRAL IOWA

CITY           SKY/WX    TMP DP  RH WIND       PRES   REMARKS
ALGONA *       CLEAR     63  63 100 N5        30.05S
CLARION *      CLEAR     63  63 100 N7        30.02F
ESTHERVILLE    CLEAR     61  61 100 N7        30.06S
FORT DODGE *   CLEAR     64  61  88 N7        30.03F
MASON CITY     CLEAR     61  59  93 N8        30.04
FOREST CITY *    N/A     63  61  94 CALM      30.04S
WEBSTER CITY * CLEAR     66  64  94 N7        29.99F
IOWA FALLS *     N/A     68  66  94 N3        30.01S
$$

IAZ007>011-017>019-026>030-037>042-050>054-066-271000-
   NORTHEAST IOWA

CITY           SKY/WX    TMP DP  RH WIND       PRES   REMARKS
CHARLES CITY * CLEAR     66  66 100 N7        30.01S
DECORAH *      CLEAR     68  66  94 N5        29.99S
DUBUQUE          N/A    N/A N/A N/A MISG      29.96S
MONTICELLO *   CLEAR     72  70  94 N8        29.94S
OELWEIN *      PTCLDY    70  70 100 N9        29.99R
WATERLOO       PTCLDY    70  68  93 N10       29.96S
$$

IAZ064-065-067-068-078-271000-
   EAST CENTRAL IOWA

CITY           SKY/WX    TMP DP  RH WIND       PRES   REMARKS
DAVENPORT      MOCLDY    70  69  97 NW3       29.95R
IOWA CITY      CLOUDY    75  70  84 N8        29.95R
MUSCATINE *    CLOUDY    73  72  94 N5        29.93S
QUAD CITIES    MOCLDY    73  70  90 NW6       29.92S
$$

IAZ062-063-075>077-085>089-095>099-271000-
   SOUTHEAST IOWA

CITY           SKY/WX    TMP DP  RH WIND       PRES   REMARKS
BURLINGTON     CLOUDY    74  74 100 SW3       29.92S
FAIRFIELD *    CLOUDY    72  70  94 NW3       29.94S
FORT MADISON * DRIZZLE   73  73 100 NW5       29.94F
KEOKUK *       CLOUDY    73  73 100 MISG      29.93S
OSKALOOSA *      N/A     69  68  97 CALM      29.96S FOG
OTTUMWA        MOCLDY    72  71  97 N6        29.95S
$$

ABBREVIATIONS USED IN REMARKS
   TC - TEMPERATURES IN CELSIUS
  WCI - WIND CHILL INDEX
   HX - HEAT INDEX
  VSB - VISIBILITY
$$





USA.gov is the U.S. government's official web portal to all federal, state and local government web resources and services.